Вернуться в каталог

LONGJIANG 1

АктивенНаукаHEO
NORAD 43471·PAYLOAD·🇨🇳 China

Запущен May 20, 2018 с Xichang Satellite Launch Center

Loading…

Ближайшие Пролёты (ближайшие 24 часа)

TLE

УстаревшееSource: Space-Track

Эпоха: May 20, 2018, 23:16 UTC

1 43471U 18045B   18140.97000001 -.00010094 +00000-0 +00000-0 0  9993
2 43471 027.5020 209.5210 9658153 171.2240 002.0960 00.09844104000018

Отслеживайте LONGJIANG 1 в реальном времени с AllMySat

Download on the App Store